Other Public Products
Issued by NWS Charleston, SC

Current Version | Previous Version | Text Only | Print | Product List | Glossary On
Versions: 1 2 3 4 5 6 7 8 9 10 11 12 13 14 15 16 17 18 19 20 21 22 23 24 25 26 27 28 29 30 31 32 33 34 35 36 37 38 39 40 41 42 43 44 45 46 47 48 49 50
000 FPUS82 KCHS 130226 OPUCHS TEST...KCHS/KSAV Gateway Observations...TEST National Weather Service Charleston SC 900 PM EST TUE DEC 12 2017 NOTE: "fair" indicates few or no clouds below 12,000 feet with no significant weather and/or obstructions to visibility. SCZ050-WAZ558-NCZ071-TXZ119-213-PAZ071-DCZ001-FLZ074-172-MI076- NYZ176-178-MAZ016-IL014-TNZ027-NJZ106-GAZ044-MD014-130300- ...Gateway Observations for Charleston International... CITY SKY/WX TMP DP RH WIND PRES REMARKS Chas Airport CLEAR 49 31 49 W16G29 29.83R Seattle PTCLDY 41 33 73 N6 30.40S Charlotte CLEAR 38 15 39 NW16G28 29.83R WCI 29 Dallas DFW CLEAR 50 26 39 NW7 30.24F Dallas Love CLEAR 49 29 46 CALM 30.26S Philladelphia PTCLDY 32 10 40 W22G31 29.58R WCI 19 Wash National MOCLDY 29 9 43 NW24G32 29.72R WCI 15 Baltimore PTCLDY 27 8 44 NW13G33 29.68R WCI 16 Miami CLEAR 63 57 81 SW8 30.00R Detroit MOCLDY 17 7 64 W9 29.90F WCI 6 Newark PTCLDY 35 19 52 NW18G29 29.46F WCI 24 Laguardia CLOUDY 36 25 64 NW24G30 29.44F WCI 24 J F K CLOUDY 36 24 62 NW24G33 29.45F WCI 24 Boston Logan CLOUDY 36 34 92 W13 29.28F WCI 27 Ft. Lauderdale CLEAR 64 59 83 SW6 29.98R Chicago O`Hare MOCLDY 19 8 62 W8 29.99F WCI 9 Chicago Midway PTCLDY 19 9 65 W12 30.01F WCI 7 Houston Bush PTCLDY 51 31 46 NW5 30.25R Houston Hobby CLEAR 52 29 41 NW7 30.24S Nashville CLEAR 33 7 33 NW7 30.12S WCI 27 Atlanta CLEAR 41 24 51 NW14 29.96R $$ GAZ044-118-TXZ119-213-NCZ071-DCZ001-MDZ014-506-PAZ021-071-NJZ106- NYZ176-178-MAZ106-OHZ011-021-055-MIZ076-KYZ091-ILZ014-INZ047- MNZ060-ONZ431-130300- ...Gateway Observations for Savannah International... CITY SKY/WX TMP DP RH WIND PRES REMARKS Savannah Arpt CLEAR 48 32 53 NW12 29.92 Atlanta CLEAR 41 24 51 NW14 29.96R Charlotte CLEAR 38 15 39 NW16G28 29.83R WCI 29 Dallas DFW CLEAR 50 26 39 NW7 30.24F Houston Bush PTCLDY 51 31 46 NW5 30.25R Wash National MOCLDY 29 9 43 NW24G32 29.72R WCI 15 Wash Dulles PTCLDY 26 5 40 NW23G40 29.71R WCI 11 Baltimore PTCLDY 27 8 44 NW13G33 29.68R WCI 16 Philadelphia PTCLDY 32 10 40 W22G31 29.58R WCI 19 Newark PTCLDY 35 19 52 NW18G29 29.46F WCI 24 Laguardia CLOUDY 36 25 64 NW24G30 29.44F WCI 24 J F K CLOUDY 36 24 62 NW24G33 29.45F WCI 24 Boston CLOUDY 36 34 92 W13 29.28F WCI 27 Pittsburg FLURRIES 18 10 71 W13 29.79F WCI 5 Akron LGT SNOW 16 10 77 W12 29.82S VSB 1 WCI 3 Cleveland CLOUDY 20 3 48 NW21G31 29.87S WCI 4 Cincinnati PTCLDY 21 9 59 NW9 30.00S WCI 11 Columbus LGT SNOW 20 17 87 W10 29.95S WCI 8 Detroit MOCLDY 17 7 64 W9 29.90F WCI 6 Chicago O`Hare MOCLDY 19 8 62 W8 29.99F WCI 9 Minneapolis CLOUDY 23 18 81 SE7 29.81F WCI 15 Indianapolis CLEAR 19 7 59 W8 30.03S WCI 9 Toronto Canada MOCLDY 12 1 62 W22G28 29.62F WCI -7 $$

USA.gov is the U.S. government's official web portal to all federal, state and local government web resources and services.